Kosmos-2412

operational
NORAD ID: 28510 Int'l Des: 2004-053 Owner: KVR/IACG Country: RU Constellation: GLONASS
MEOCIRCULAR

Über Kosmos-2412

Beschreibung wird geladen...

Live-Position

3D-Globus wird geladen...

Nächste Überflüge

Höhenverlauf

Altitude vs Time

uPlot chart will show altitude changes over time

Zweizeiliger Elementsatz

1 28510U 04053C 26060.46484150 .00000016 00000-0 00000+0 0 9990
2 28510 64.1477 64.1132 0008734 254.0762 257.3556 2.13103070164823
Epoch: 1. März 2026 • Age: 84 hours

Aktueller Status

Höhe 19132.4 km
Geschwindigkeit 3.95 km/s
Subsatellitenpunkt -34.73°S, 61.75°E
Startdatum 26. Dez. 2004
Alter 21.1 years
Typ other

Technische Details

Klassifizierung Payload
Masse 1450.00 kg
Trockenmasse 1200.00 kg
Gesamtmasse 1450.00 kg
Länge 4.00 m
Durchmesser 1.50 m
Spannweite 7.80 m
Form Cyl + Ant + 2 Pan
Hersteller POL
Bus-Typ Uragan
Phasenstatus In Orbit
Besitzer/Staat KVR/IACG/RU

Große Konstellationen

Loading constellations...